logo tempoitalia

Diretta Meteo Mikonos Island Mikonos, Grecialunedì 31 agosto ore 08:20

Mappa
Sereno 25 °C Sereno 24 Ore: T.min 23 T.max 28
Ponente Nord Km/h 22.2 Punto di rugiada: 21 °C Umidità: 78% Visibilità: 10 Km
Il sole sorge alle: 06:48 Il sole tramonta alle: 19:49
31 Agosto 2026 08:20 tempo osservato: Sereno Sereno 25 78 1014 vento: Nord N 22.2
31 Agosto 2026 07:50 tempo osservato: Sereno Sereno 24 83 1014 vento: Nord N 9.3
31 Agosto 2026 07:20 tempo osservato: Sereno Sereno 23 94 1014 vento: Nord N 3.7
31 Agosto 2026 06:50 tempo osservato: Sereno Sereno 24 88 1014 vento: Nord N 14.8
31 Agosto 2026 06:20 tempo osservato: Sereno Sereno 24 88 1013 vento: Nord N 18.5
31 Agosto 2026 05:50 tempo osservato: Sereno Sereno 24 94 1013 vento: Nord N 18.5
31 Agosto 2026 05:20 tempo osservato: Sereno Sereno 24 88 1014 vento: Nord N/NO 18.5
31 Agosto 2026 04:50 tempo osservato: Sereno Sereno 24 88 1013 vento: Nord N/NO 25.9
31 Agosto 2026 04:20 tempo osservato: Sereno Sereno 24 83 1014 vento: Nord N 22.2
31 Agosto 2026 03:50 tempo osservato: Sereno Sereno 24 83 1014 vento: Nord N 22.2
31 Agosto 2026 02:50 tempo osservato: Sereno Sereno 24 78 1014 vento: Nord N 18.5
31 Agosto 2026 01:50 tempo osservato: Sereno Sereno 24 78 1014 vento: Nord N 25.9
31 Agosto 2026 01:20 tempo osservato: Sereno Sereno 24 78 1014 vento: Nord N 25.9
31 Agosto 2026 00:50 tempo osservato: Sereno Sereno 25 73 1014 vento: Nord N 18.5
31 Agosto 2026 00:20 tempo osservato: Sereno Sereno 25 73 1014 vento: Nord N 14.8
30 Agosto 2026 23:50 tempo osservato: Sereno Sereno 25 73 1014 vento: Nord N 20.3
30 Agosto 2026 23:20 tempo osservato: Sereno Sereno 25 69 1014 vento: Nord N 20.3
30 Agosto 2026 22:50 tempo osservato: Sereno Sereno 25 69 1014 vento: Nord N 16.7
30 Agosto 2026 22:20 tempo osservato: Sereno Sereno 25 73 1014 vento: Nord N 22.2
30 Agosto 2026 21:50 tempo osservato: Sereno Sereno 25 69 1014 vento: Nord N 24
30 Agosto 2026 21:20 tempo osservato: Sereno Sereno 25 69 1014 vento: Nord N 27.8
30 Agosto 2026 20:50 tempo osservato: Sereno Sereno 25 69 1014 vento: Nord N/NO 31.5
30 Agosto 2026 20:20 tempo osservato: Sereno Sereno 25 65 1013 vento: Nord N 31.5
30 Agosto 2026 19:50 tempo osservato: Sereno Sereno 25 65 1013 vento: Nord N 29.6
30 Agosto 2026 19:20 tempo osservato: Sereno Sereno 26 57 1013 vento: Nord N 31.5
30 Agosto 2026 18:50 tempo osservato: Sereno Sereno 26 54 1013 vento: Nord N 24
30 Agosto 2026 18:20 tempo osservato: Sereno Sereno 26 57 1014 vento: Nord N 24
30 Agosto 2026 17:50 tempo osservato: Sereno Sereno 27 57 1014 vento: Nord N 29.6
30 Agosto 2026 17:20 tempo osservato: Sereno Sereno 27 57 1014 vento: Nord N/NO 27.8
30 Agosto 2026 16:50 tempo osservato: Sereno Sereno 27 54 1014 vento: Nord N/NO 27.8
30 Agosto 2026 16:20 tempo osservato: Sereno Sereno 27 54 1014 vento: Nord N/NO 27.8
30 Agosto 2026 15:50 tempo osservato: Sereno Sereno 27 54 1014 vento: Nord N 40.7
30 Agosto 2026 15:20 tempo osservato: Sereno Sereno 28 48 1014 vento: Nord N 44.4
30 Agosto 2026 14:50 tempo osservato: Sereno Sereno 28 45 1014 vento: Nord N 42.6
30 Agosto 2026 14:20 tempo osservato: Sereno Sereno 28 45 1014 vento: Nord N 37
30 Agosto 2026 13:50 tempo osservato: Sereno Sereno 27 50 1014 vento: Nord N 38.8
30 Agosto 2026 13:20 tempo osservato: Sereno Sereno 27 57 1014 vento: Nord N 37
30 Agosto 2026 12:50 tempo osservato: Sereno Sereno 27 54 1015 vento: Nord N 33.3
30 Agosto 2026 12:20 tempo osservato: Sereno Sereno 26 69 1015 vento: Nord N 29.6
30 Agosto 2026 11:50 tempo osservato: Sereno Sereno 26 69 1015 vento: Nord N 27.8
30 Agosto 2026 11:20 tempo osservato: Sereno Sereno 25 73 1015 vento: Nord N 29.6
30 Agosto 2026 10:50 tempo osservato: Sereno Sereno 25 73 1015 vento: Nord N 29.6
30 Agosto 2026 10:20 tempo osservato: Sereno Sereno 25 73 1015 vento: Nord N 29.6
30 Agosto 2026 09:50 tempo osservato: Sereno Sereno 26 65 1015 vento: Nord N 27.8
30 Agosto 2026 09:20 tempo osservato: Sereno Sereno 25 69 1015 vento: Nord N 25.9
30 Agosto 2026 08:50 tempo osservato: Sereno Sereno 25 73 1014 vento: Nord N 20.3